Location: Sampeire
(44.5667°N, 7.1833°E)
Time: 13:44:42
(UTC+00:00)

Daily predictions for brighter satellites

Satellite Brightness Start Highest point End
(mag) Time Altitude Azimuth Time Altitude Azimuth Time Altitude Azimuth
Cosmos 2184 Rocket 4.5 19:35:46 10° SSE 19:41:42 43° E 19:47:36 10° NNE
ERS-1 Rocket 4.0 19:39:16 10° SE 19:43:36 30° ENE 19:47:56 10° N
Cosmos 1844 Rocket 2.6 19:43:04 10° SSW 19:48:36 75° ESE 19:54:11 10° NNE
Resurs 01 Rocket 2.8 19:48:53 10° S 19:53:03 43° W 19:57:15 10° NNW
USA 307 4.5 19:51:34 10° W 19:55:07 34° NNW 19:58:41 10° NE
MetOp-B 4.3 19:51:20 10° SSE 19:56:35 60° ENE 20:01:52 10° N
CZ-4 R/B 3.9 19:54:36 10° SW 19:57:37 20° W 20:00:37 10° NW
Okean 2 Rocket 3.5 19:53:24 10° NNW 19:57:54 68° W 20:02:20 10° S
Cosmos 2151 Rocket 4.2 19:54:51 10° NNW 19:59:12 59° W 20:03:34 10° S
Okean O Rocket 2.3 19:56:14 10° S 20:00:26 52° W 20:04:41 10° NNW
MOS 1 4.3 19:57:01 10° SSE 20:02:40 82° ENE 20:08:21 10° NNW
IRS-1C Rocket 4.4 19:57:55 10° SE 20:03:02 54° ENE 20:08:10 10° N
Cosmos 1680 Rocket 4.3 19:59:07 10° NNW 20:04:12 52° WSW 20:09:17 10° S
PSLV R/B 4.5 20:01:34 10° S 20:04:58 47° W 20:08:27 10° NNW
Cosmos 2154 Rocket 4.2 19:59:46 10° SSE 20:05:54 54° E 20:12:04 10° NNE
Cosmos 2074 Rocket 4.0 20:01:15 10° S 20:07:26 70° E 20:13:41 10° NNE
Cosmos 1603 4.2 20:02:08 10° NNW 20:07:46 62° WSW 20:13:19 10° S
Cosmos 1892 4.2 20:04:40 10° SW 20:07:57 36° WNW 20:11:16 10° N
Cosmos 1048 Rocket 4.4 20:05:18 10° NNW 20:10:32 53° ENE 20:15:23 12° SE
Ariane Rocket 3.8 20:07:17 11° SE 20:11:45 36° ENE 20:16:20 10° N
SPOT 5 3.0 20:10:52 10° SSE 20:15:44 90° WSW 20:20:54 10° NNW
MOS 1 Rocket 3.7 20:11:40 11° SE 20:15:56 46° ENE 20:20:12 10° N
ISS -1.7 20:13:50 10° WNW 20:16:48 30° NNW 20:19:47 10° NE
Cosmos 921 Rocket 3.1 20:14:02 10° NNW 20:18:11 61° ENE 20:21:45 14° SSE
USA 215 3.4 20:15:52 12° SE 20:22:05 69° SW 20:28:39 10° NW
Cosmos 1328 4.5 20:18:42 10° SSW 20:22:26 53° W 20:26:11 10° N
Cosmos 1825 4.3 20:20:23 10° SW 20:23:13 24° WNW 20:26:02 10° NNW
Cosmos 494 Rocket 4.1 20:20:21 10° NNW 20:25:39 84° WSW 20:30:30 12° SSE
NOSS 2-3 (D) 3.1 20:23:21 10° SSW 20:26:58 62° ESE 20:30:51 10° NE
IRS-1A Rocket 4.3 20:22:10 10° SSE 20:27:48 87° ENE 20:33:36 10° NNW
Okean-O 3.4 20:23:59 10° S 20:28:15 49° W 20:32:32 10° NNW
Timation 2 Rocket 3.9 20:25:15 10° SSW 20:31:33 70° ESE 20:37:39 10° NNE
Gbstr 26 Del rocket 4.4 20:28:29 10° W 20:32:39 44° NNW 20:37:42 10° ENE
Cosmos 1125 Rocket 3.7 20:28:34 10° S 20:33:40 50° ESE 20:38:47 10° NNE
CZ-4C R/B 3.3 20:30:36 10° N 20:34:18 72° WNW 20:37:48 10° SSW
NOSS 3-1 (C) 4.2 20:37:12 18° SE 20:38:40 20° ESE 20:42:28 10° ENE
USA 276 2.7 20:37:47 10° WNW 20:40:40 47° NNE 20:42:48 16° E
Cosmos 2084 3.5 20:38:10 10° SW 20:42:20 77° NW 20:46:19 10° NE
SPOT 3 Rocket 3.7 20:38:30 17° SSE 20:42:29 63° ENE 20:47:39 10° N
NOSS 2-2 (E) 3.5 20:46:41 10° SW 20:49:56 55° NW 20:53:01 10° NNE
Landsat 4 4.0 20:49:58 26° SE 20:51:29 44° ENE 20:54:47 10° N
In-Cosmos 22 Rocket 4.3 20:45:52 10° S 20:51:38 87° W 20:57:18 10° N
Nadezhda 3 Rocket 4.1 20:48:29 10° NNW 20:54:37 74° W 21:00:16 12° S
BREEZE-M DEB (TANK) 3.6 20:52:10 10° WNW 20:55:13 81° NNE 21:03:15 12° ESE
Cosmos 1544 Rocket 3.9 20:51:41 10° N 20:55:54 48° ENE 20:58:03 25° SE
NOSS 2-3 (E) 3.8 20:52:30 10° SW 20:56:05 58° NW 21:00:03 10° NNE
Terra 2.0 20:52:39 16° S 20:56:25 70° WSW 21:01:09 10° NNW
SL-8 Rocket 4.3 20:55:32 19° SSE 20:59:57 52° E 21:06:01 10° NNE
Cosmos 1437 Rocket 2.9 21:07:19 34° SE 21:08:23 46° E 21:11:53 10° NNE
ATLAS CENTAUR R/B 1.7 21:04:59 10° NW 21:08:56 56° WSW 21:10:52 28° S
Meteor 2-1 Rocket 4.4 21:09:29 10° NNW 21:15:05 68° W 21:18:58 20° S
Cosmos 1833 Rocket 2.8 21:09:39 10° NNW 21:15:18 67° ENE 21:18:22 27° SE
Cosmos 1455 Rocket 4.4 21:12:13 10° NNW 21:16:15 36° W 21:19:45 13° SSW
Cosmos 1975 Rocket 4.1 21:13:21 10° SSW 21:17:39 46° WNW 21:21:58 10° N
Cosmos 44 3.3 21:13:39 10° SSW 21:18:55 76° ESE 21:24:01 10° NE
Cosmos 962 Rocket 4.5 21:14:54 14° S 21:20:23 85° W 21:26:36 10° N
Spot 1 4.4 21:15:35 10° NNE 21:20:41 67° ESE 21:23:35 25° S
Orbus 7S? 3.7 21:18:38 10° WNW 21:21:03 31° SW 21:21:21 30° SSW
Lacrosse 5 3.9 21:17:35 10° W 21:22:02 30° NNW 21:26:30 10° NE
ERS-1 Rocket 4.2 21:18:03 12° SSW 21:22:14 35° W 21:26:49 10° NNW
Spot 2 Rocket 4.2 21:19:30 17° SSW 21:23:10 48° W 21:28:07 10° NNW
Cosmos 220 Rocket 3.9 21:22:27 10° NNW 21:26:37 78° WSW 21:28:09 37° S
Cosmos 2218 Rocket 3.9 21:23:42 24° S 21:27:29 69° E 21:33:37 10° NNE
Cosmos 864 Rocket 4.5 21:24:18 23° S 21:28:19 73° E 21:34:31 10° NNE
Cosmos 2082 Rocket 3.6 21:23:33 10° N 21:28:20 27° NE 21:31:39 16° E
Landsat 5 3.5 21:27:36 10° NNE 21:32:02 87° ESE 21:34:10 30° SSW
Cosmos 2278 Rocket 2.5 21:31:13 31° SSE 21:33:25 46° ESE 21:38:48 10° NE
Cosmos 1606 3.8 21:33:21 10° NNW 21:36:37 34° W 21:38:05 24° SW
MetOp-A 3.6 21:35:01 36° SSE 21:36:55 89° W 21:41:19 10° NNW
Cosmos 2298 Rocket 4.0 21:33:31 16° SSW 21:37:46 84° WNW 21:43:07 10° NNE
Cosmos 2341 Rocket 4.1 21:33:38 18° SSW 21:38:28 78° W 21:44:50 10° N
Cosmos 614 Rocket 3.9 21:37:36 10° NNW 21:42:42 79° ENE 21:44:35 39° SSE
H-2A R/B 4.1 21:44:33 18° E 21:45:21 19° ENE 21:48:06 10° NNE
CZ-2C R/B 4.1 21:40:53 10° NNE 21:45:22 47° E 21:46:20 41° SE
Cosmos 1536 Rocket 3.5 21:47:10 38° SSW 21:48:47 81° W 21:53:08 10° N
Ariane Rocket 4.4 21:47:25 16° SSW 21:50:41 30° W 21:55:07 10° NW
CZ-4C R/B 4.3 21:45:50 10° NNW 21:51:44 30° NE 21:58:43 10° E
ISS -1.5 21:51:27 10° NW 21:54:13 24° N 21:57:00 10° ENE
USA 290 3.4 21:58:14 33° ENE 21:58:14 33° ENE 22:00:20 10° NNE
COSMOS 2406 4.3 21:52:52 10° NNW 21:58:05 36° NE 22:00:48 23° ESE
ARIANE 5 R/B 2.8 21:58:54 47° SE 21:59:54 62° ENE 22:04:19 10° N
GENESIS II 4.4 22:00:09 10° NW 22:03:31 50° WSW 22:03:31 50° WSW
ATLAS 3B R/B 3.2 22:01:26 34° SSE 22:03:48 45° ESE 22:10:53 10° NE
Cosmos 1269 Rocket 4.3 22:00:09 10° NNW 22:05:25 60° ENE 22:07:06 40° SE
BREEZE-M DEB (TANK) 3.0 21:57:11 10° WNW 22:05:38 48° SW 22:06:11 45° SSW
Cosmos 1727 Rocket 4.0 21:59:53 10° N 22:06:16 78° E 22:08:48 39° SSE
Cosmos 2228 4.1 22:02:54 10° NNW 22:06:44 36° W 22:08:06 28° SW
Cosmos 1943 Rocket 2.3 22:08:20 43° SSE 22:09:49 57° ESE 22:15:20 10° NNE
Cosmos 1821 Rocket 4.0 22:09:48 34° S 22:12:44 89° W 22:19:08 10° N
USA 276 4.3 22:12:06 10° W 22:13:09 18° W 22:13:09 18° W
Cosmos 2058 3.6 22:19:03 39° E 22:19:03 39° E 22:22:43 10° NNE
ALOS 2 3.5 22:19:19 33° E 22:20:04 35° ENE 22:24:05 10° N
Alouette 2 Rocket 4.1 22:24:00 42° E 22:24:06 42° E 22:28:56 10° NNE
Spot 4 4.1 22:23:23 47° ESE 22:24:26 58° ENE 22:29:12 10° N
Cosmos 2084 Rocket 3.5 22:23:08 10° NNW 22:27:03 58° NE 22:27:21 56° ENE
SeaSat 1 2.9 22:26:56 39° ESE 22:28:24 53° ENE 22:33:12 10° NNW
NOSS 3-1 (C) 3.5 22:24:28 14° SW 22:28:39 59° NW 22:34:27 10° NNE
Cosmos 1812 2.7 22:33:20 10° N 22:36:28 67° NNW 22:36:28 67° NNW
Cosmos 1238 Rocket 3.5 22:39:07 10° N 22:42:01 39° ENE 22:42:01 39° ENE
BREEZE-M R/B 4.2 22:38:16 10° W 22:42:47 71° N 22:59:11 10° ENE
PSLV R/B 4.1 22:40:33 10° N 22:44:29 60° WNW 22:44:51 57° W
Cosmos 1892 Rocket 3.6 22:45:05 61° SW 22:45:39 70° W 22:50:06 10° N
Cosmos 1626 Rocket 4.3 22:48:21 39° E 22:48:21 39° E 22:52:09 10° NNE
Cosmos 1140 Rocket 3.5 22:48:44 10° NNW 22:53:52 71° ENE 22:54:49 56° SE
Cosmos 1833 Rocket 4.4 22:54:46 10° WNW 22:58:37 19° W 23:00:03 17° WSW
BREEZE-M DEB (TANK) 4.2 22:59:21 10° WNW 23:02:33 71° NNE 23:12:06 10° ESE
Cosmos-2242 3.3 23:01:45 10° N 23:05:51 53° ENE 23:05:51 53° ENE
NOSS 3-1 (A) 3.3 23:03:57 35° WSW 23:06:01 66° NW 23:11:53 10° NE
Cosmos 2123 Rocket 4.0 22:59:46 10° N 23:06:04 79° W 23:07:51 50° S
Cosmos 2082 Rocket 2.4 23:07:15 10° NW 23:12:41 52° WSW 23:13:28 48° SW
Cosmos 1656 Rocket 3.9 23:13:38 48° ESE 23:14:00 49° ESE 23:19:19 10° NE
Cosmos 1515 4.4 23:12:19 10° N 23:14:57 46° NNE 23:14:57 46° NNE
Cosmos 2278 Rocket 3.8 23:12:59 11° WSW 23:17:39 31° NW 23:22:39 10° N
Lacrosse 4 Rocket 3.5 23:20:40 16° E 23:20:40 16° E 23:22:10 10° ENE
Cosmos 2369 Rocket 2.7 23:19:37 40° ESE 23:19:57 40° ESE 23:25:10 10° NE
H-2A R/B 3.4 23:20:31 34° W 23:20:31 34° W 23:23:38 10° NNW
ULPM Upper Stage 2.9 23:17:04 10° NW 23:20:59 66° W 23:20:59 66° W
PSLV R/B 3.5 23:17:56 10° NNE 23:22:18 85° ESE 23:22:20 85° ESE
Iridium 4 Rocket 4.4 23:24:52 10° N 23:30:25 48° E 23:31:55 39° ESE
ISS -2.1 23:28:10 10° NW 23:30:10 31° NW 23:30:10 31° NW
Cosmos 1190 Rocket 4.4 23:26:21 10° NNW 23:31:28 54° ENE 23:32:46 42° ESE
USA 229 DEB 3.4 23:32:18 54° S 23:33:35 68° ESE 23:40:12 10° NE
USA 229 3.4 23:32:27 54° S 23:33:43 67° ESE 23:40:20 10° NE
Cosmos 2058 Rocket 4.2 23:30:46 10° NNW 23:34:36 32° W 23:34:36 32° W
Cosmos 1862 3.7 23:35:38 54° NE 23:35:38 54° NE 23:38:50 10° NNE
Cosmos 1782 3.3 23:31:27 10° NNW 23:34:35 53° NW 23:34:35 53° NW
Cosmos 1378 4.2 23:36:04 10° NNW 23:38:06 36° NNW 23:38:06 36° NNW
CZ-4C R/B 3.0 23:33:46 10° NW 23:41:04 88° NE 23:45:35 32° SE
COSMOS 2455 4.2 23:36:12 10° NNW 23:41:42 35° NE 23:46:54 11° ESE
Meteor 2-2 Rocket 4.2 23:36:31 10° NNW 23:42:14 75° W 23:43:24 57° SSW
COSMOS 2406 3.9 23:37:10 10° NW 23:42:22 38° WSW 23:42:49 37° WSW
Cosmos 2221 3.3 23:42:32 10° N 23:46:33 39° ENE 23:46:52 39° E
Cosmos 2285 Rocket 4.0 23:47:03 10° NNW 23:53:32 85° ENE 23:55:34 47° SSE
Cosmos 1943 Rocket 4.0 23:49:48 12° WSW 23:53:54 26° NW 23:58:34 10° N
Cosmos 1825 Rocket 3.9 23:54:06 54° E 23:54:06 54° E 23:58:17 10° NNE
